Notices

What's New in latest Release from April 7th, 2021:

- Updated Glossary, including Speed of Maximum Gust, and Total Hourly Precipitation

- Updated national and regional climate services offices contacts and prices information

- Addition of station inventory lists for 1981-2010, 1971-2000, and 1961-1990 Normals.

If you haven't already, please take our survey and provide feedback about our website: https://eccc.sondage-survey.ca/f/LanguageSelection.aspx?s=442ca660-fcf1-47c0-95a9-59707d6fd709

Hourly Data Report for November 14, 2019

EUREKA CLIMATE
NUNAVUT
Current Station Operator: ECCC - MSC

79°59'21.000" N
85°56'02.000" W
10.00 m
2401199
71613
NEK

Download Data

Hourly Data (November 2019)
Hourly Data Report for November 14, 2019
TIME
LST
Temp Definition
°C
Dew Point Definition
°C
Rel Hum Definition
%
Precip. Amount Definition
mm

Wind Dir Definition
10's deg

Wind Spd Definition
km/h
Visibility Definition
km
Stn Press Definition
kPa
Hmdx Definition


Wind Chill Definition


Weather Definition


00:00 -36.5 -40.2 69 0.0 6 4   101.79   -42 LegendNANA
01:00 -36.5 -40.2 69 0.0 6 4   101.78   -42 LegendNANA
02:00 -36.2 -39.8 70 0.0 5 3   101.72   -40 LegendNANA
03:00 -36.1 -39.6 70 0.0 6 3   101.68   -40 LegendNANA
04:00 -35.8 -39.4 70 0.0 9 3   101.59   -40 LegendNANA
05:00 -36.1 -39.6 70 0.0 1 4   101.51   -41 LegendNANA
06:00 -36.1 -39.8 69 0.0 36 3   101.37   -40 LegendNANA
07:00 -33.8 -37.1 72 0.0 32 3   101.23   -37 LegendNANA
08:00 -34.3 -37.6 71 0.0 11 6   101.08   -41 LegendNANA
09:00 -34.5 -38.0 71 0.0 2 5   100.89   -41 LegendNANA
10:00 -34.2 -37.6 71 0.0 12 8   100.69   -43 LegendNANA
11:00 -33.9 -37.2 72 0.0 11 4   100.53   -39 LegendNANA
12:00 -32.9 -36.1 73 0.0 12 5   100.32   -39 LegendNANA
13:00 -25.3 -27.7 80 0.0 28 36   100.04   -41 LegendNANA
14:00 -23.2 -25.1 84 0.0 29 30   99.91   -37 LegendNANA
15:00 -22.5 -24.5 84 0.0 28 26   99.74   -35 LegendNANA
16:00 -22.6 -24.6 83 0.0 30 13   99.53   -32 LegendNANA
17:00 -21.4 -23.4 84 0.0 29 25   99.39   -33 LegendNANA
18:00 -21.5 -23.6 83 0.0 30 15   99.22   -31 LegendNANA
19:00 -21.7 -23.8 83 0.0 28 31   99.05   -35 LegendNANA
20:00 -21.8 -23.9 83 0.0 28 30   98.91   -35 LegendNANA
21:00 -21.8 -24.1 82 0.0 29 37   98.77   -36 LegendNANA
22:00 -21.6 -23.9 82 0.0 29 39   98.65   -36 LegendNANA
23:00 -21.7 -23.9 83 0.0 29 44   98.48   -37 LegendNANA

Notes on Data Quality.

Legend

  • E = Estimated
  • M = Missing
  • NA = Not Available*
  • [empty] = Indicates an unobserved value
Date modified: